When you browse on this site, cookies collect data to enhance your experience and personalize the content and advertising you see.
Visit our Privacy Policy to learn more. By continuing to use the site, you agree to this use of cookies and data.
  • în România
  • Lista ţărilor
  • Pe 7 zile
  • Temperatura apei
  • Meteo pe hartă
  • Widget-uri
  • user-avatar
    Intrare

    Meteo pe oră la Klagenfurt

    Astăzi, 22 August, Joi

    Timp Temperatura Precipitaţii Vânt Presiune Umiditate
    00:00 +15°C° 0.2 mm 1 m/s 696 mmHg 97%
    01:00 +14°C° 0 mm 1 m/s 696 mmHg 96%
    02:00 +14°C° 0.3 mm 1 m/s 695 mmHg 97%
    03:00 +14°C° 0.3 mm 1 m/s 695 mmHg 97%
    04:00 +14°C° 0.3 mm 1 m/s 695 mmHg 97%
    05:00 +14°C° 0.1 mm 1 m/s 695 mmHg 97%
    06:00 +14°C° 0.1 mm 1 m/s 695 mmHg 96%
    07:00 +15°C° 0.1 mm 1 m/s 696 mmHg 95%
    08:00 +16°C° 0 mm 1 m/s 696 mmHg 89%
    09:00 +19°C° 0 mm 1 m/s 696 mmHg 82%
    10:00 +20°C° 0 mm 1 m/s 696 mmHg 75%
    11:00 +21°C° 0 mm 1 m/s 696 mmHg 71%
    12:00 +22°C° 0 mm 1 m/s 696 mmHg 66%
    13:00 +23°C° 0 mm 1 m/s 696 mmHg 62%
    14:00 +23°C° 0 mm 1 m/s 696 mmHg 63%
    15:00 +23°C° 0 mm 1 m/s 696 mmHg 64%
    16:00 +23°C° 0 mm 1 m/s 695 mmHg 64%
    17:00 +22°C° 0.1 mm 1 m/s 695 mmHg 72%
    18:00 +20°C° 0.1 mm 1 m/s 695 mmHg 80%
    19:00 +19°C° 0.1 mm 1 m/s 695 mmHg 88%
    20:00 +18°C° 0.1 mm 1 m/s 695 mmHg 90%
    21:00 +16°C° 0.1 mm 1 m/s 695 mmHg 92%
    22:00 +16°C° 0.1 mm 1 m/s 695 mmHg 94%
    23:00 +15°C° 0 mm 1 m/s 695 mmHg 95%

    Mâine, 23 August, Vineri

    Timp Temperatura Precipitaţii Vânt Presiune Umiditate
    00:00 +15°C° 0 mm 1 m/s 695 mmHg 95%
    01:00 +15°C° 0 mm 1 m/s 695 mmHg 95%
    02:00 +15°C° 0 mm 1 m/s 695 mmHg 95%
    03:00 +15°C° 0 mm 1 m/s 695 mmHg 95%
    04:00 +15°C° 0 mm 1 m/s 695 mmHg 95%
    05:00 +15°C° 0.1 mm 1 m/s 695 mmHg 94%
    06:00 +16°C° 0.1 mm 1 m/s 695 mmHg 93%
    07:00 +18°C° 0.1 mm 1 m/s 695 mmHg 91%
    08:00 +19°C° 0.2 mm 1 m/s 695 mmHg 87%
    09:00 +20°C° 0.2 mm 1 m/s 696 mmHg 83%
    10:00 +22°C° 0.2 mm 1 m/s 696 mmHg 79%
    11:00 +22°C° 0.1 mm 1 m/s 696 mmHg 77%
    12:00 +23°C° 0.1 mm 1 m/s 696 mmHg 75%
    13:00 +23°C° 0.1 mm 1 m/s 696 mmHg 72%
    14:00 +24°C° 0.2 mm 1 m/s 696 mmHg 73%
    15:00 +24°C° 0.2 mm 1 m/s 695 mmHg 73%
    16:00 +24°C° 0.2 mm 1 m/s 695 mmHg 74%
    17:00 +22°C° 0.2 mm 1 m/s 695 mmHg 80%
    18:00 +21°C° 0.2 mm 1 m/s 694 mmHg 87%
    19:00 +19°C° 0.2 mm 1 m/s 694 mmHg 93%
    20:00 +19°C° 1.3 mm 1 m/s 694 mmHg 94%
    21:00 +18°C° 1.3 mm 1 m/s 694 mmHg 94%
    22:00 +18°C° 1.3 mm 1 m/s 694 mmHg 95%
    23:00 +18°C° 0.5 mm 1 m/s 694 mmHg 95%

    Poimâine, 24 August, Sâmbătă

    Timp Temperatura Precipitaţii Vânt Presiune Umiditate
    00:00 +15°C° 0.5 mm 0 m/s 694 mmHg 95%
    01:00 +15°C° 0.5 mm 0 m/s 694 mmHg 95%
    02:00 +15°C° 0.4 mm 0 m/s 693 mmHg 96%
    03:00 +15°C° 0.4 mm 0 m/s 693 mmHg 96%
    04:00 +15°C° 0.4 mm 0 m/s 693 mmHg 96%
    05:00 +16°C° 0.6 mm 0 m/s 693 mmHg 96%
    06:00 +16°C° 0.6 mm 0 m/s 693 mmHg 96%
    07:00 +19°C° 0.6 mm 1 m/s 694 mmHg 96%
    08:00 +20°C° 0.2 mm 1 m/s 694 mmHg 91%
    09:00 +21°C° 0.2 mm 1 m/s 694 mmHg 86%
    10:00 +23°C° 0.2 mm 1 m/s 694 mmHg 81%
    11:00 +24°C° 0.8 mm 1 m/s 694 mmHg 78%
    12:00 +24°C° 0.8 mm 1 m/s 694 mmHg 74%
    13:00 +25°C° 0.8 mm 1 m/s 694 mmHg 70%
    14:00 +25°C° 1 mm 1 m/s 694 mmHg 72%
    15:00 +25°C° 1 mm 1 m/s 694 mmHg 74%
    16:00 +25°C° 1 mm 1 m/s 693 mmHg 77%
    17:00 +23°C° 0.4 mm 1 m/s 693 mmHg 80%
    18:00 +21°C° 0.4 mm 1 m/s 693 mmHg 83%
    19:00 +18°C° 0.4 mm 0 m/s 692 mmHg 86%
    20:00 +19°C° 0.2 mm 1 m/s 692 mmHg 86%
    21:00 +19°C° 0.2 mm 1 m/s 692 mmHg 87%
    22:00 +18°C° 0.2 mm 1 m/s 692 mmHg 87%
    23:00 +18°C° 0.1 mm 1 m/s 692 mmHg 87%

    25 August, Duminică

    Timp Temperatura Precipitaţii Vânt Presiune Umiditate
    00:00 +16°C° 0.1 mm 1 m/s 692 mmHg 88%
    01:00 +16°C° 0.1 mm 1 m/s 692 mmHg 89%
    02:00 +16°C° 0 mm 1 m/s 692 mmHg 89%
    03:00 +16°C° 0 mm 1 m/s 692 mmHg 89%
    04:00 +15°C° 0 mm 1 m/s 692 mmHg 90%
    05:00 +16°C° 0 mm 1 m/s 692 mmHg 89%
    06:00 +18°C° 0 mm 1 m/s 692 mmHg 88%
    07:00 +19°C° 0 mm 1 m/s 692 mmHg 88%
    08:00 +21°C° 0.1 mm 1 m/s 692 mmHg 79%
    09:00 +23°C° 0.1 mm 1 m/s 693 mmHg 71%
    10:00 +26°C° 0.1 mm 1 m/s 694 mmHg 62%
    11:00 +26°C° 0.8 mm 1 m/s 693 mmHg 62%
    12:00 +26°C° 0.8 mm 1 m/s 693 mmHg 62%
    13:00 +27°C° 0.8 mm 1 m/s 693 mmHg 62%
    14:00 +27°C° 0.3 mm 1 m/s 693 mmHg 61%
    15:00 +26°C° 0.3 mm 1 m/s 693 mmHg 61%
    16:00 +26°C° 0.3 mm 1 m/s 693 mmHg 61%
    17:00 +24°C° 0.4 mm 1 m/s 692 mmHg 68%
    18:00 +20°C° 0.4 mm 0 m/s 692 mmHg 75%
    19:00 +18°C° 0.4 mm 0 m/s 692 mmHg 82%
    20:00 +20°C° 0.2 mm 1 m/s 692 mmHg 84%
    21:00 +19°C° 0.2 mm 1 m/s 692 mmHg 85%
    22:00 +18°C° 0.2 mm 1 m/s 692 mmHg 86%
    23:00 +18°C° 0 mm 1 m/s 692 mmHg 87%

    26 August, Luni

    Timp Temperatura Precipitaţii Vânt Presiune Umiditate
    00:00 +18°C° 0 mm 1 m/s 692 mmHg 88%
    01:00 +16°C° 0 mm 1 m/s 692 mmHg 89%
    02:00 +16°C° 0 mm 1 m/s 692 mmHg 89%
    03:00 +16°C° 0 mm 1 m/s 692 mmHg 90%
    04:00 +16°C° 0 mm 1 m/s 691 mmHg 91%
    05:00 +16°C° 0 mm 1 m/s 692 mmHg 89%
    06:00 +18°C° 0 mm 1 m/s 692 mmHg 88%
    07:00 +19°C° 0 mm 1 m/s 693 mmHg 86%
    08:00 +21°C° 0 mm 1 m/s 693 mmHg 77%
    09:00 +24°C° 0 mm 1 m/s 694 mmHg 68%
    10:00 +26°C° 0 mm 1 m/s 694 mmHg 59%
    11:00 +27°C° 0.6 mm 1 m/s 694 mmHg 59%
    12:00 +27°C° 0.6 mm 1 m/s 694 mmHg 59%
    13:00 +28°C° 0.6 mm 1 m/s 694 mmHg 59%
    14:00 +27°C° 0.5 mm 1 m/s 694 mmHg 61%
    15:00 +27°C° 0.5 mm 1 m/s 693 mmHg 63%
    16:00 +26°C° 0.5 mm 1 m/s 693 mmHg 66%
    17:00 +24°C° 0.2 mm 1 m/s 693 mmHg 71%
    18:00 +22°C° 0.2 mm 1 m/s 692 mmHg 76%
    19:00 +20°C° 0.2 mm 1 m/s 692 mmHg 81%
    20:00 +20°C° 0 mm 1 m/s 692 mmHg 81%
    21:00 +19°C° 0 mm 1 m/s 692 mmHg 81%
    22:00 +19°C° 0 mm 1 m/s 693 mmHg 82%
    23:00 +18°C° 0.1 mm 1 m/s 692 mmHg 84%

    27 August, Marţi

    Timp Temperatura Precipitaţii Vânt Presiune Umiditate
    00:00 +18°C° 0.1 mm 1 m/s 692 mmHg 85%
    01:00 +18°C° 0.1 mm 1 m/s 692 mmHg 87%
    02:00 +16°C° 0 mm 1 m/s 692 mmHg 88%
    03:00 +16°C° 0 mm 1 m/s 692 mmHg 88%
    04:00 +16°C° 0 mm 1 m/s 691 mmHg 89%
    05:00 +18°C° 0 mm 1 m/s 692 mmHg 87%
    06:00 +17°C° 0 mm 0 m/s 692 mmHg 85%
    07:00 +18°C° 0 mm 0 m/s 692 mmHg 82%
    08:00 +20°C° 0.3 mm 0 m/s 693 mmHg 77%
    09:00 +24°C° 0.3 mm 1 m/s 693 mmHg 72%
    10:00 +25°C° 0.3 mm 1 m/s 694 mmHg 67%
    11:00 +26°C° 0.6 mm 1 m/s 693 mmHg 64%
    12:00 +27°C° 0.6 mm 1 m/s 693 mmHg 60%
    13:00 +28°C° 0.6 mm 1 m/s 693 mmHg 57%
    14:00 +27°C° 0.3 mm 1 m/s 693 mmHg 57%
    15:00 +27°C° 0.3 mm 1 m/s 693 mmHg 58%
    16:00 +27°C° 0.3 mm 1 m/s 692 mmHg 58%
    17:00 +25°C° 0.6 mm 1 m/s 692 mmHg 67%
    18:00 +22°C° 0.6 mm 1 m/s 691 mmHg 75%
    19:00 +20°C° 0.6 mm 1 m/s 691 mmHg 83%
    20:00 +20°C° 0.4 mm 1 m/s 691 mmHg 84%
    21:00 +19°C° 0.4 mm 1 m/s 691 mmHg 86%
    22:00 +18°C° 0.4 mm 1 m/s 691 mmHg 87%
    23:00 +18°C° 0.2 mm 1 m/s 691 mmHg 87%
    Arată mai mult